Nashua, NH

1:00 PM EST on December 09, 2019 (GMT -0500)
Boire

Weather History for KASH - June, 2019

Change the Weather History Date:

Sunday, June 2, 2019

  Actual Average Record
Temperature  
Mean Temperature 64 °F -  
Max Temperature 77 °F 73 °F 91 °F (2013)
Min Temperature 53 °F 49 °F 38 °F (1953)
Degree Days  
Heating Degree Days 1    
Growing Degree Days 14 (Base 50)    
Moisture  
Dew Point 58 °F    
Average Humidity 95    
Maximum Humidity 100    
Minimum Humidity 62    
Precipitation  
Precipitation 1.10 in - - ()
Sea Level Pressure  
Sea Level Pressure 29.75 in    
Wind  
Wind Speed 4 mph ()    
Max Wind Speed 16 mph    
Max Gust Speed 34 mph    
Visibility 6.0 miles    
Events Fog , Rain , Thunderstorm    
Averages and records for this station are not official NWS values.
T = Trace of Precipitation, MM = Missing Value Source: Averaged Metar Reports

Daily Weather History Graph

Daily Weather History Graph

Search for Another Location

Airport or City:

Astronomy

Jun. 02, 2019 Rise Set
Actual Time 5:10 AM EDT 8:18 PM EDT
Civil Twilight 4:35 AM EDT 8:52 PM EDT
Nautical Twilight 3:51 AM EDT 9:36 PM EDT
Astronomical Twilight 2:59 AM EDT 10:30 PM EDT
Moon 4:50 AM EDT (6/2) 7:32 PM EDT (6/2)
Length of Visible Light 16h 17m
Length of Day
15h 08m
Waning Crescent, 1% of the Moon is Illuminated
Jun 2
Waning Crescent
Jun 3
New
Jun 10
First Quarter
Jun 17
Full
Jun 25
Last Quarter

Hourly Weather History & Observations

Time (EDT) Temp. Dew Point Humidity Pressure Visibility Wind Dir Wind Speed Gust Speed Precip Events Conditions
12:21 AM 55.4 °F 55.4 °F 100% 29.84 in 7.0 mi East 4.6 mph - N/A   Overcast
12:38 AM 55.4 °F 55.4 °F 100% 29.84 in 2.5 mi East 3.5 mph - N/A   Overcast
12:56 AM 55.9 °F 55.9 °F 100% 29.87 in 3.0 mi East 3.5 mph - N/A   Overcast
1:28 AM 55.4 °F 55.4 °F 100% 29.83 in 2.5 mi East 5.8 mph - N/A   Overcast
1:36 AM 55.4 °F 55.4 °F 100% 29.83 in 1.5 mi East 5.8 mph - N/A   Overcast
1:56 AM 55.0 °F 55.0 °F 100% 29.85 in 1.2 mi East 4.6 mph - N/A   Overcast
2:28 AM 55.4 °F 55.4 °F 100% 29.81 in 1.0 mi East 5.8 mph - N/A   Overcast
2:48 AM 55.4 °F 55.4 °F 100% 29.80 in 0.8 mi East 4.6 mph - N/A   Overcast
2:56 AM 55.0 °F 55.0 °F 100% 29.83 in 0.8 mi ESE 4.6 mph - N/A   Overcast
3:56 AM 55.0 °F 55.0 °F 100% 29.82 in 0.8 mi East 5.8 mph - N/A   Overcast
4:22 AM 55.4 °F 55.4 °F 100% 29.78 in 0.5 mi ENE 3.5 mph - N/A Fog Fog
4:32 AM 53.6 °F 53.6 °F 100% 29.78 in 0.8 mi East 5.8 mph - N/A   Overcast
4:47 AM 55.4 °F 55.4 °F 100% 29.78 in 1.2 mi East 3.5 mph - N/A   Overcast
4:56 AM 54.0 °F 54.0 °F 100% 29.81 in 1.2 mi East 6.9 mph - N/A   Overcast
5:04 AM 53.6 °F 53.6 °F 100% 29.77 in 3.0 mi East 5.8 mph - N/A   Overcast
5:56 AM 54.0 °F 54.0 °F 100% 29.80 in 8.0 mi East 4.6 mph - N/A   Overcast
6:53 AM 53.6 °F 53.6 °F 100% 29.78 in 2.0 mi ENE 3.5 mph - N/A   Overcast
6:56 AM 54.0 °F 54.0 °F 100% 29.81 in 2.0 mi East 3.5 mph - N/A   Overcast
7:09 AM 53.6 °F 53.6 °F 100% 29.78 in 3.0 mi Calm Calm - N/A   Overcast
7:56 AM 54.0 °F 54.0 °F 100% 29.81 in 10.0 mi ESE 4.6 mph - N/A   Overcast
8:29 AM 55.4 °F 55.4 °F 100% 29.78 in 10.0 mi ESE 6.9 mph - N/A   Overcast
8:56 AM 55.9 °F 55.0 °F 97% 29.82 in 10.0 mi East 8.1 mph - N/A   Overcast
9:56 AM 55.9 °F 55.0 °F 97% 29.82 in 10.0 mi East 5.8 mph - N/A   Overcast
10:22 AM 57.2 °F 55.4 °F 94% 29.78 in 10.0 mi SE 3.5 mph - N/A   Overcast
10:56 AM 57.9 °F 55.9 °F 93% 29.81 in 10.0 mi SE 4.6 mph - N/A   Overcast
11:44 AM 60.8 °F 57.2 °F 88% 29.77 in 10.0 mi SE 4.6 mph - N/A   Overcast
11:56 AM 62.1 °F 57.0 °F 84% 29.80 in 10.0 mi Variable 3.5 mph - N/A   Overcast
12:16 PM 64.4 °F 57.2 °F 77% 29.75 in 10.0 mi East 4.6 mph - N/A   Overcast
12:56 PM 66.9 °F 57.9 °F 73% 29.78 in 10.0 mi Calm Calm - N/A   Mostly Cloudy
1:56 PM 70.0 °F 59.0 °F 68% 29.73 in 10.0 mi SE 6.9 mph - N/A   Mostly Cloudy
2:03 PM 69.8 °F 60.8 °F 73% 29.70 in 10.0 mi SE 8.1 mph - N/A   Mostly Cloudy
2:56 PM 73.9 °F 60.1 °F 62% 29.69 in 10.0 mi ESE 10.4 mph - N/A   Scattered Clouds
3:56 PM 75.9 °F 62.1 °F 62% 29.65 in 10.0 mi SE 8.1 mph 17.3 mph N/A   Mostly Cloudy
4:56 PM 72.0 °F 64.0 °F 76% 29.64 in 7.0 mi South 3.5 mph 16.1 mph 0.00 in Rain Light Rain
5:04 PM 72.0 °F 64.0 °F 76% 29.64 in 4.0 mi WNW 16.1 mph 34.5 mph 0.00 in Rain Heavy Rain
5:32 PM 62.6 °F 62.6 °F 100% 29.66 in 4.0 mi North 3.5 mph - 0.50 in Rain , Thunderstorm Heavy Thunderstorms and Rain
5:42 PM 62.6 °F 62.6 °F 100% 29.65 in 4.0 mi North 3.5 mph - 0.58 in Rain , Thunderstorm Thunderstorms and Rain
5:56 PM 62.1 °F 62.1 °F 100% 29.68 in 7.0 mi East 5.8 mph - 0.58 in Rain , Thunderstorm Light Rain
6:09 PM 62.6 °F 62.6 °F 100% 29.66 in 5.0 mi SE 3.5 mph - 0.03 in Rain Rain
6:56 PM 63.0 °F 63.0 °F 100% 29.69 in 10.0 mi Variable 3.5 mph - 0.03 in   Overcast
7:56 PM 62.1 °F 62.1 °F 100% 29.69 in 10.0 mi SE 6.9 mph - N/A   Overcast
8:09 PM 62.6 °F 62.6 °F 100% 29.67 in 7.0 mi Calm Calm - N/A   Overcast
8:49 PM 60.8 °F 60.8 °F 100% 29.68 in 7.0 mi Calm Calm - 0.10 in Rain Rain
8:56 PM 61.0 °F 61.0 °F 100% 29.70 in 4.0 mi ESE 5.8 mph - 0.14 in Rain Heavy Rain
9:36 PM 60.8 °F 60.8 °F 100% 29.67 in 10.0 mi SE 5.8 mph - 0.02 in   Overcast
9:56 PM 60.1 °F 60.1 °F 100% 29.72 in 10.0 mi WSW 3.5 mph - 0.02 in   Overcast
10:03 PM 60.8 °F 60.8 °F 100% 29.68 in 5.0 mi Calm Calm - 0.04 in Rain , Thunderstorm Heavy Rain
10:07 PM 60.8 °F 60.8 °F 100% 29.68 in 2.5 mi SSE 3.5 mph - 0.07 in Rain , Thunderstorm Heavy Rain
10:10 PM 60.8 °F 60.8 °F 100% 29.69 in 3.0 mi Calm Calm - 0.08 in Rain , Thunderstorm Rain
10:14 PM 60.8 °F 60.8 °F 100% 29.69 in 2.5 mi Variable 3.5 mph - 0.17 in Rain Heavy Rain
10:28 PM 60.8 °F 60.8 °F 100% 29.69 in 3.0 mi Variable 3.5 mph - 0.31 in Rain Rain
10:44 PM 60.8 °F 60.8 °F 100% 29.69 in 10.0 mi SE 3.5 mph - 0.33 in Rain Light Rain
10:56 PM 61.0 °F 61.0 °F 100% 29.71 in 10.0 mi Calm Calm - 0.33 in Rain Light Rain
11:51 PM 60.8 °F 60.8 °F 100% 29.68 in 10.0 mi Calm Calm - 0.00 in   Overcast
11:56 PM 61.0 °F 61.0 °F 100% 29.71 in 10.0 mi Calm Calm - 0.00 in   Overcast